Bishopton, United Kingdom

7:15 PM GMT on February 22, 2017 (GMT +0000)
Glasgow

Weather History for EGPF - September, 2011

Change the Weather History Date:

Wednesday, September 28, 2011

  Actual Average Record
Temperature  
Mean Temperature 65 °F -  
Max Temperature 73 °F 53 °F 73 °F (2011)
Min Temperature 57 °F 42 °F 35 °F (2015)
Growing Degree Days 15 (Base 50)    
Moisture  
Dew Point 58 °F    
Average Humidity 79    
Maximum Humidity 94    
Minimum Humidity 61    
Precipitation  
Precipitation 0.00 in - - ()
Sea Level Pressure  
Sea Level Pressure 30.12 in    
Wind  
Wind Speed 7 mph ()    
Max Wind Speed 20 mph    
Max Gust Speed 33 mph    
Visibility 6.2 miles    
Events      
Averages and records for this station are not official NWS values.
T = Trace of Precipitation, MM = Missing Value Source: Averaged Metar Reports

Daily Weather History Graph

Daily Weather History Graph

Search for Another Location

Airport or City:

Trip Planner

Search our weather history database for the weather conditions in past years. The results will help you decide how hot, cold, wet, or windy it might be!

Date:

Astronomy

Sep. 28, 2011 Rise Set
Actual Time 7:13 AM BST 7:01 PM BST
Civil Twilight 6:36 AM BST 7:38 PM BST
Nautical Twilight 5:53 AM BST 8:22 PM BST
Astronomical Twilight 5:07 AM BST 9:07 PM BST
Moon 8:52 AM BST (9/28) 6:50 PM BST (9/28)
Length of Visible Light 13h 01m
Length of Day
11h 48m
New Moon, 2% of the Moon is Illuminated
Sep 28
New Moon
Oct 4
First Quarter
Oct 12
Full
Oct 20
Last Quarter
Oct 26
New

Hourly Weather History & Observations

Time (BST) Temp. Dew Point Humidity Pressure Visibility Wind Dir Wind Speed Gust Speed Precip Events Conditions
12:20 AM 59.0 °F 55.4 °F 88% 30.21 in 6.2 mi Variable 3.5 mph - N/A   Overcast
12:50 AM 59.0 °F 55.4 °F 88% 30.21 in 6.2 mi WSW 10.4 mph - N/A   Overcast
1:20 AM 59.0 °F 55.4 °F 88% 30.21 in 6.2 mi South 5.8 mph - N/A   Overcast
1:50 AM 59.0 °F 55.4 °F 88% 30.21 in 6.2 mi South 6.9 mph - N/A   Overcast
2:20 AM 59.0 °F 55.4 °F 88% 30.21 in 6.2 mi South 9.2 mph - N/A   Overcast
2:50 AM 59.0 °F 55.4 °F 88% 30.21 in 6.2 mi SE 4.6 mph - N/A   Overcast
3:20 AM 59.0 °F 55.4 °F 88% 30.18 in 6.2 mi ESE 5.8 mph - N/A   Overcast
3:50 AM 59.0 °F 57.2 °F 94% 30.18 in 6.2 mi East 5.8 mph - N/A   Overcast
4:20 AM 59.0 °F 55.4 °F 88% 30.15 in 6.2 mi ESE 5.8 mph - N/A   Mostly Cloudy
4:50 AM 57.2 °F 55.4 °F 94% 30.15 in 6.2 mi East 4.6 mph - N/A   Mostly Cloudy
5:20 AM 57.2 °F 55.4 °F 94% 30.15 in 6.2 mi East 5.8 mph - N/A   Overcast
5:50 AM 59.0 °F 55.4 °F 88% 30.15 in 6.2 mi ESE 4.6 mph - N/A   Mostly Cloudy
6:20 AM 59.0 °F 55.4 °F 88% 30.15 in 6.2 mi ESE 5.8 mph - N/A   Mostly Cloudy
6:50 AM 59.0 °F 55.4 °F 88% 30.12 in 6.2 mi ESE 4.6 mph - N/A   Mostly Cloudy
7:20 AM 59.0 °F 55.4 °F 88% 30.12 in 6.2 mi East 5.8 mph - N/A   Mostly Cloudy
7:50 AM 59.0 °F 53.6 °F 82% 30.12 in 6.2 mi East 6.9 mph - N/A   Mostly Cloudy
8:20 AM 57.2 °F 55.4 °F 94% 30.12 in 6.2 mi ENE 9.2 mph - N/A   Scattered Clouds
8:50 AM 59.0 °F 55.4 °F 88% 30.12 in 6.2 mi ENE 9.2 mph - N/A   Scattered Clouds
9:20 AM 60.8 °F 55.4 °F 82% 30.12 in 6.2 mi ENE 5.8 mph - N/A   Partly Cloudy
9:50 AM 62.6 °F 57.2 °F 82% 30.12 in 6.2 mi NE 6.9 mph - N/A   Partly Cloudy
10:20 AM 64.4 °F 59.0 °F 83% 30.12 in 6.2 mi SSW 6.9 mph - N/A   Partly Cloudy
10:50 AM 66.2 °F 59.0 °F 78% 30.12 in 6.2 mi South 10.4 mph - N/A   Partly Cloudy
11:20 AM 68.0 °F 60.8 °F 78% 30.12 in 6.2 mi Variable 3.5 mph - N/A   Scattered Clouds
11:50 AM 69.8 °F 59.0 °F 68% 30.12 in 6.2 mi SW 16.1 mph 27.6 mph N/A   Scattered Clouds
12:20 PM 69.8 °F 59.0 °F 68% 30.12 in 6.2 mi SW 15.0 mph - N/A   Partly Cloudy
12:50 PM 69.8 °F 60.8 °F 73% 30.12 in 6.2 mi SW 9.2 mph - N/A   Scattered Clouds
1:20 PM 71.6 °F 59.0 °F 64% 30.09 in 6.2 mi SW 15.0 mph - N/A   Partly Cloudy
1:50 PM 71.6 °F 59.0 °F 64% 30.09 in 6.2 mi SSW 19.6 mph - N/A   Partly Cloudy
2:20 PM 71.6 °F 59.0 °F 64% 30.09 in - SSW 19.6 mph - N/A   Clear
2:50 PM 73.4 °F 59.0 °F 61% 30.09 in - SSW 19.6 mph 33.4 mph N/A   Clear
3:20 PM 73.4 °F 60.8 °F 65% 30.09 in - SSW 12.7 mph - N/A   Clear
3:50 PM 73.4 °F 60.8 °F 65% 30.06 in - SSW 16.1 mph - N/A   Clear
4:20 PM 73.4 °F 60.8 °F 65% 30.06 in - SSW 19.6 mph - N/A   Clear
4:50 PM 73.4 °F 60.8 °F 65% 30.06 in - SSW 12.7 mph - N/A   Clear
5:20 PM 71.6 °F 60.8 °F 69% 30.06 in 6.2 mi South 13.8 mph - N/A   Partly Cloudy
5:50 PM 71.6 °F 60.8 °F 69% 30.06 in 6.2 mi South 15.0 mph 26.5 mph N/A   Partly Cloudy
6:20 PM 69.8 °F 60.8 °F 73% 30.06 in - South 10.4 mph - N/A   Clear
6:50 PM 69.8 °F 60.8 °F 73% 30.06 in - South 12.7 mph - N/A   Clear
7:20 PM 68.0 °F 59.0 °F 73% 30.06 in - South 10.4 mph - N/A   Clear
7:50 PM 66.2 °F 59.0 °F 78% 30.06 in - South 8.1 mph - N/A   Clear
8:20 PM 66.2 °F 59.0 °F 78% 30.09 in - SW 6.9 mph - N/A   Clear
8:50 PM 66.2 °F 59.0 °F 78% 30.09 in - SSW 5.8 mph - N/A   Clear
9:20 PM 62.6 °F 57.2 °F 82% 30.09 in - Variable 2.3 mph - N/A   Clear
9:50 PM 64.4 °F 57.2 °F 77% 30.06 in - SE 6.9 mph - N/A   Clear
10:20 PM 64.4 °F 57.2 °F 77% 30.09 in - Variable 3.5 mph - N/A   Clear
10:50 PM 60.8 °F 57.2 °F 88% 30.09 in - Variable 3.5 mph - N/A   Clear
11:20 PM 60.8 °F 57.2 °F 88% 30.09 in - ESE 5.8 mph - N/A   Clear
11:50 PM 62.6 °F 57.2 °F 82% 30.09 in - ESE 5.8 mph - N/A   Clear